www.pogodaiklimat.ru

Погода и климат >> Архив погоды >> Казахстан >> Анкаты


ПОГОДА в Анкаты

  • Прогноз погоды в Анкаты
  • Монитор погоды в Анкаты
  • Климат города

АРХИВ ПОГОДЫ в Анкаты

Время (UTC), дата Ветер
(напр.,м/с)
 
Видим.   Явления Облачность Т
(С)
Тd
(С)
f
(%)
Тe
(С)
Тes
(С)
Комфортность P
(гПа)
Po
(гПа)
Тmin
(С)
Tmax
(С)
R
(мм)
R24
(мм)
S
(см)
15 18.04 н/о н/о +21.9
18 18.04 н/о н/о +21.9 4
21 18.04 ЮВ 3 н/о н/о +11.1 -32.6 3 +10 +10 1015.9 1012.6
00 19.04 В 3 20 км ясно +7.2 -35.3 3 +6 +6 1015.4 1012.1
03 19.04 В 2 20 км н/о +8.9 -34.1 3 +8 +8 1015.2 1011.9 3
06 19.04 ЮВ 4 н/о н/о +16.9 -28.7 3 +17 +17 1014.5 1011.3 1
09 19.04 н/о н/о
12 19.04 ЮВ 7 н/о н/о +23.7 -20.8 4 +21 +21 комфорт 1011.6 1008.5
15 19.04 н/о н/о +23.7
18 19.04 В 5 н/о н/о +15.2 -29.8 3 +14 +14 1009.6 1006.4 +23.7
21 19.04 Ю 5 н/о н/о +14.0 -30.6 3 +13 +13 1009.2 1006.0
00 20.04 ЮВ 4 20 км н/о +11.1 -32.6 3 +10 +10 1007.0 1003.8
03 20.04 н/о н/о
06 20.04 ЮЗ 4 н/о н/о +8.5 -34.4 3 +7 +7 1010.7 1007.4 0.5
09 20.04 н/о н/о
21 20.04 З 4 20 км ясно -1.6 -41.5 3 -6 -6 1019.3 1015.8
00 21.04 З 4 20 км ясно -2.9 -42.4 3 -7 -7 1019.2 1015.7
03 21.04 СЗ 6 20 км ясно -1.0 -41.0 3 -6 -6 1020.5 1017.0 2
06 21.04 СЗ 6 20 км ясно +2.9 -38.3 3 -1 +3 1020.9 1017.5
09 21.04 СЗ 4 20 км ясно +6.4 -35.9 3 +4 +13 опасность
простуды
1020.3 1016.9
12 21.04 З 4 20 км ясно +7.9 -34.8 3 +6 +10 1019.4 1016.1
15 21.04 СЗ 2 20 км н/о +6.8 -35.6 3 +6 +6 1018.7 1015.4 +7.9
18 21.04 ЮВ 2 20 км н/о +3.2 -38.1 3 +2 +2 1018.2 1014.8 +7.9
21 21.04 В 2 20 км н/о +2.6 -38.5 3 +1 +1 1017.6 1014.2
00 22.04 В 3 20 км н/о +2.5 -38.6 3 0 0 1016.1 1012.7
03 22.04 ЮВ 4 20 км н/о +4.0 -37.5 3 +1 +1 1014.2 1010.8 1
06 22.04 В 5 20 км н/о +5.5 -36.5 3 +2 +2 1010.7 1007.4
09 22.04 ЮВ 6 5000 м н/о +5.1 -36.8 3 +2 +2 1005.5 1002.2
12 22.04 Ю 6 20 км н/о +6.6 -35.7 3 +3 +3 1002.3 999.0
15 22.04 ЮЗ 4 20 км н/о +7.2 -35.3 3 +5 +5 1002.7 999.4 +7.7
18 22.04 Ю 6 20 км н/о +4.3 -37.3 3 +1 +1 1003.9 1000.6 +7.7 5
21 22.04 ЮЗ 9 20 км н/о +6.0 -36.2 3 +2 +2 1004.9 1001.6
00 23.04 З 7 20 км н/о +5.5 -36.5 3 +2 +2 1008.0 1004.7
03 23.04 ЮЗ 7 18 км н/о +4.5 -37.2 3 0 0 1010.7 1007.4 <0.5
06 23.04 ЮЗ 8 20 км ясно +10.6 -33.0 3 +8 +10 1012.2 1008.9
09 23.04 н/о н/о -30.9 1013.1 1009.9
12 23.04 Ю 8 н/о н/о +14.0 -30.6 3 +12 +12 1013.3 1010.1
15 23.04 Ю 2 н/о н/о +12.6 -31.6 3 +13 +13 1012.6 1009.3 +15.0
18 23.04 ЮВ 2 н/о н/о +9.3 -33.9 3 +9 +9 1012.5 1009.2 +15.0
21 23.04 В 2 17 км н/о +8.6 -34.4 3 +8 +8 1011.3 1008.0
00 24.04 В 4 19 км н/о +8.2 -34.6 3 +6 +6 1007.9 1004.6
03 24.04 В 6 20 км н/о +9.4 -33.8 3 +7 +7 1002.1 998.8 2
06 24.04 н/о н/о 0.7

 

Местоположение метеостанции Анкаты (Западно-Казахстанская область, Казахстан): широта 50.83 долгота 52.00 высота над уровнем моря 25 м.

В архиве по умолчанию представлена погода в Анкаты за последнюю неделю. Архивные данные за месяц целиком и за предыдущие месяцы, начиная с января 2011 года, Вы можете получить, выбрав интересующий диапазон дат из раскрывающегося списка и нажав кнопку "Ввод!".

Внимание! Время в таблицах - всемирное. Для получения местного времени необходимо прибавить поправку, которая в Анкаты равна 5 ч.

Смотрите также архив погоды в соседних городах и на ближайших метеорологических станциях:

Погода в Уральске (Западно-Казахстанская область, Казахстан) (69 км)
Погода в Джамбейты (Западно-Казахстанская область, Казахстан) (76 км)
Погода в Аксае (Западно-Казахстанская область, Казахстан) (80 км)
Погода в Январцево (Западно-Казахстанская область, Казахстан) (87 км)
Погода в Чапаево (Западно-Казахстанская область, Казахстан) (91 км)
Погода в Первомайском (Оренбургская область, Россия) (121 км)
Погода в Каменке (Западно-Казахстанская область, Казахстан) (122 км)
Погода в Илеке (Оренбургская область, Россия) (123 км)
Погода в Чингирлау (Западно-Казахстанская область, Казахстан) (150 км)
Погода в Перелюбе (Саратовская область, Россия) (164 км)

Пояснения к столбцам:

Ветер - указаны скорость ветра в м/с - средняя за 10 мин, порывы в срок и между сроками (в фигурных скобках) и направление, откуда дует ветер: С - северный, СВ - северо-восточный, В - восточный, ЮВ - юго-восточный, Ю - южный, ЮЗ - юго-западный, З - западный, СЗ - северо-западный.
Видимость - горизонтальная дальность видимости в метрах или километрах. При видимости от 1 до 10 км при отсутствии осадков обычно наблюдается дымка, при ухудшении видимости до 1 км и менее - туман. В сухую погоду видимость может ухудшаться дымом, пылью или мглою.
Явления - указаны атмосферные явления, наблюдавшиеся в срок или в последний час перед сроком; фигурными скобками обозначены явления, наблюдавшиеся между сроками (за 1-3 часа до срока); квадратными скобками обозначены град или гололедные отложения с указанием их диаметра в мм.
Облачность - указаны через наклонную черту общая и нижняя облачность в баллах и высота нижней границы облаков в метрах; квадратными скобками обозначены формы облаков: Ci - перистые, Cs - перисто-слоистые, Cc - перисто-кучевые, Ac - высококучевые, As - высокослоистые, Sc - слоисто-кучевые, Ns - слоисто-дождевые, Cu - кучевые, Cb - кучево-дождевые. Подробнее классификацию облаков см. в Атласе облаков (PDF).
T - Температура воздуха - температура, измеренная на высоте 2 м над землей.
Td - Температура точки росы - температура, при понижении до которой содержащийся в воздухе водяной пар достигнет насыщения.
f - Относительная влажность воздуха - влажноcть воздуха, измеренная на высоте 2 м над землей.
Te - Эффективная температура - температура, которую ощущает одетый по сезону человек в тени. Характеристика душности погоды. При расчете учитывается влияние влажности воздуха и скорости ветра на теплоощущения человека.
Tes - Эффективная температура на солнце - температура, которую ощущает человек, с поправкой на солнечный нагрев. Характеристика знойности погоды. Зависит от высоты солнца над горизонтом, облачности и скорости ветра. Ночью, в пасмурную погоду, а также при ветре 12 м/с и более поправка равна нулю.
P - Атмосферное давление - приведенное к уровню моря атмосферное давление.
Po - Атмосферное давление - измеренное на уровне метеостанции атмосферное давление.
Tmin - Минимальная температура - минимум температуры воздуха на высоте 2 м над землей.
Tmax - Максимальная температура - максимум температуры воздуха на высоте 2 м над землей.
R - Количество осадков - Количество выпавших осадков за период времени, мм. При наведении курсора мыши на число - период времени, за который выпало указанное количество осадков.
R24 - Количество осадков - Количество выпавших осадков за 24 часа, мм.
S - Снежный покров - Высота снежного покрова, см. При наведении курсора мыши на число - состояние снежного покрова и степень покрытия местности в баллах.